Location: Bretagne
(43.8474°N, 0.4650°W)
Time: 13:07:18
(UTC+00:00)

Radarsat Rocket - Pass Details

Date: 27 April 2026
Orbit: 933 x 1491 km, 100.5° (Epoch: 12 May)

Event Time Altitude Azimuth Distance (km) Brightness Sun altitude
Rises 19:40:23 0° 188° (S) 4,570 7.3 -7.5°
Reaches altitude 10° 19:43:25 10° 195° (SSW) 3,618 6.8 -8.0°
Maximum altitude 19:51:23 41° 263° (W) 2,053 6.2 -9.2°
Drops below altitude 10° 19:59:14 10° 331° (NNW) 3,550 8.0 -10.4°
Sets 20:02:13 0° 338° (NNW) 4,477 8.4 -10.9°
